{"data":{"norad_id":58355,"epoch":"2026-09-20T12:01:05.510208Z","epoch_age_seconds":143476,"freshness":"FRESH","line1":"1 58355U 23177E   26263.50075822 -.00001277  00000+0 -36887-4 0  9998","line2":"2 58355  43.0048 330.2152 0001639 268.2094  91.8570 15.27574104158025","mean_motion":15.27574104,"eccentricity":0.0001639,"inclination_deg":43.0048,"raan_deg":330.2152,"arg_perigee_deg":268.2094,"mean_anomaly_deg":91.857,"bstar":-3.6887e-5,"rev_number":15802,"period_min":94.267112556394,"perigee_km":481.94219954675,"apogee_km":484.19130213628,"semimajor_km":6861.2037508415,"source":"CELESTRAK","updated_at":"2026-09-21T09:00:33.841489Z"}}